TimeEST,TemperatureF,Dew PointF,Humidity,Sea Level PressureIn,VisibilityMPH,Wind Direction,Wind SpeedMPH,Gust SpeedMPH,PrecipitationIn,Events,Conditions,WindDirDegrees,DateUTC
12:15 AM,41.0,32.0,70,30.02,10.0,SSW,3.5,-,N/A,,Clear,200,2013-02-05 05:15:00
12:35 AM,41.0,32.0,70,30.01,10.0,Calm,Calm,-,N/A,,Clear,0,2013-02-05 05:35:00
12:55 AM,37.4,33.8,87,30.01,10.0,SSW,3.5,-,N/A,,Clear,200,2013-02-05 05:55:00
1:15 AM,37.4,33.8,87,30.00,10.0,Calm,Calm,-,N/A,,Clear,0,2013-02-05 06:15:00
1:35 AM,37.4,32.0,81,30.00,10.0,SSW,3.5,-,N/A,,Clear,210,2013-02-05 06:35:00
1:55 AM,41.0,32.0,70,29.99,10.0,SSW,3.5,-,N/A,,Clear,210,2013-02-05 06:55:00
2:15 AM,41.0,32.0,70,29.99,10.0,SSW,3.5,-,N/A,,Clear,210,2013-02-05 07:15:00
2:35 AM,41.0,32.0,70,29.99,10.0,SSW,4.6,-,N/A,,Clear,210,2013-02-05 07:35:00
2:55 AM,39.2,30.2,70,29.99,10.0,WSW,3.5,-,N/A,,Clear,240,2013-02-05 07:55:00
3:15 AM,37.4,32.0,81,29.98,10.0,SW,3.5,-,N/A,,Clear,230,2013-02-05 08:15:00
3:35 AM,37.4,32.0,81,29.99,10.0,SW,4.6,-,N/A,,Clear,230,2013-02-05 08:35:00
3:55 AM,37.4,32.0,81,29.99,10.0,SW,4.6,-,N/A,,Clear,220,2013-02-05 08:55:00
4:15 AM,37.4,32.0,81,29.99,10.0,SW,3.5,-,N/A,,Clear,230,2013-02-05 09:15:00
4:35 AM,35.6,32.0,87,29.99,10.0,SW,4.6,-,N/A,,Clear,230,2013-02-05 09:35:00
4:55 AM,37.4,32.0,81,29.98,10.0,Calm,Calm,-,N/A,,Clear,0,2013-02-05 09:55:00
5:15 AM,33.8,32.0,93,29.98,10.0,Calm,Calm,-,N/A,,Clear,0,2013-02-05 10:15:00
5:35 AM,33.8,32.0,93,29.98,10.0,SSW,3.5,-,N/A,,Clear,200,2013-02-05 10:35:00
5:55 AM,33.8,32.0,93,29.99,10.0,SSW,3.5,-,N/A,,Clear,200,2013-02-05 10:55:00
6:15 AM,33.8,32.0,93,29.99,10.0,Calm,Calm,-,N/A,,Clear,0,2013-02-05 11:15:00
6:35 AM,33.8,32.0,93,30.00,10.0,Calm,Calm,-,N/A,,Clear,0,2013-02-05 11:35:00
6:55 AM,33.8,32.0,93,30.01,10.0,Calm,Calm,-,N/A,,Clear,0,2013-02-05 11:55:00
7:15 AM,35.6,32.0,87,30.01,10.0,SW,3.5,-,N/A,,Scattered Clouds,230,2013-02-05 12:15:00
7:55 AM,37.4,33.8,87,30.02,10.0,SW,3.5,-,N/A,,Scattered Clouds,220,2013-02-05 12:55:00
8:15 AM,39.2,32.0,75,30.03,10.0,SW,3.5,-,N/A,,Clear,230,2013-02-05 13:15:00
8:35 AM,42.8,32.0,66,30.02,10.0,SW,3.5,-,N/A,,Clear,230,2013-02-05 13:35:00
9:15 AM,44.6,32.0,61,30.04,10.0,WSW,4.6,-,N/A,,Clear,250,2013-02-05 14:15:00
9:35 AM,46.4,32.0,57,30.04,10.0,West,6.9,-,N/A,,Clear,260,2013-02-05 14:35:00
9:55 AM,51.8,33.8,50,30.03,10.0,WSW,6.9,-,N/A,,Clear,250,2013-02-05 14:55:00
10:15 AM,53.6,33.8,47,30.03,10.0,WSW,9.2,-,N/A,,Clear,250,2013-02-05 15:15:00
10:35 AM,53.6,35.6,51,30.04,10.0,WSW,9.2,-,N/A,,Clear,250,2013-02-05 15:35:00
10:55 AM,55.4,39.2,54,30.04,10.0,West,8.1,-,N/A,,Clear,270,2013-02-05 15:55:00
11:15 AM,57.2,41.0,55,30.04,10.0,West,5.8,-,N/A,,Clear,280,2013-02-05 16:15:00
6:35 PM,55.4,44.6,67,29.97,10.0,Calm,Calm,-,N/A,,Scattered Clouds,0,2013-02-05 23:35:00
6:55 PM,53.6,44.6,72,29.98,10.0,Calm,Calm,-,N/A,,Scattered Clouds,0,2013-02-05 23:55:00
7:15 PM,53.6,44.6,72,29.98,10.0,Calm,Calm,-,N/A,,Scattered Clouds,0,2013-02-06 00:15:00
7:35 PM,53.6,46.4,77,29.99,10.0,WSW,4.6,-,N/A,,Scattered Clouds,250,2013-02-06 00:35:00
7:55 PM,53.6,44.6,72,30.00,10.0,WSW,3.5,-,N/A,,Scattered Clouds,250,2013-02-06 00:55:00
8:15 PM,53.6,44.6,72,30.00,10.0,Calm,Calm,-,N/A,,Clear,0,2013-02-06 01:15:00
8:35 PM,53.6,46.4,77,30.00,10.0,WSW,4.6,-,N/A,,Scattered Clouds,240,2013-02-06 01:35:00
8:55 PM,55.4,46.4,72,30.01,10.0,Calm,Calm,-,N/A,,Scattered Clouds,0,2013-02-06 01:55:00
9:15 PM,53.6,48.2,82,30.01,10.0,West,3.5,-,N/A,,Scattered Clouds,260,2013-02-06 02:15:00
9:35 PM,53.6,50.0,88,30.01,10.0,Calm,Calm,-,N/A,,Scattered Clouds,0,2013-02-06 02:35:00
10:15 PM,53.6,50.0,88,30.02,10.0,Calm,Calm,-,N/A,,Clear,0,2013-02-06 03:15:00
10:35 PM,53.6,50.0,88,30.03,10.0,West,3.5,-,N/A,,Scattered Clouds,270,2013-02-06 03:35:00
10:55 PM,51.8,50.0,94,30.03,10.0,Calm,Calm,-,N/A,,Clear,0,2013-02-06 03:55:00
11:15 PM,51.8,48.2,88,30.03,10.0,WSW,4.6,-,N/A,,Scattered Clouds,250,2013-02-06 04:15:00
11:35 PM,48.2,46.4,93,30.02,10.0,West,4.6,-,N/A,,Clear,270,2013-02-06 04:35:00
11:55 PM,48.2,46.4,93,30.03,10.0,Calm,Calm,-,N/A,,Clear,0,2013-02-06 04:55:00